COSMOS 1408 DEB 1 50032U 82092RU 26254.71658962 .00003524 00000+0 65617-4 0 9996 2 50032 82.5633 138.0985 0013427 304.4763 55.5218 15.48346627268241 COSMOS 1408 DEB 1 50058U 82092SW 26255.09660687 .00126504 48300-5 31290-3 0 9997 2 50058 82.6045 137.5505 0009168 128.5158 231.6942 15.95782759271123 COSMOS 1408 DEB 1 50621U 82092ALR 26254.73746360 .00041808 00000+0 26479-3 0 9991 2 50621 82.5644 145.9137 0015321 201.0136 159.0501 15.76194243265220